Weather History for LSGG - November, 2013

Change the Weather History Date:

Wednesday, November 20, 2013

  Actual Average Record
Temperature  
Mean Temperature 36 °F -  
Max Temperature 38 °F 42 °F 51 °F (2011)
Min Temperature 33 °F 32 °F 24 °F (2005)
Degree Days  
Heating Degree Days 30    
Moisture  
Dew Point 34 °F    
Average Humidity 91    
Maximum Humidity 100    
Minimum Humidity 69    
Precipitation  
Precipitation 0.03 in 0.11 in - ()
Sea Level Pressure  
Sea Level Pressure 29.72 in    
Wind  
Wind Speed 5 mph ()    
Max Wind Speed 13 mph    
Max Gust Speed -    
Visibility 5.8 miles    
Events Rain , Snow    
Averages and records for this station are not official NWS values.
T = Trace of Precipitation, MM = Missing Value Source: Averaged Metar Reports

Daily Weather History Graph

Daily Weather History Graph

Search for Another Location

Airport or City:

Trip Planner

Search our weather history database for the weather conditions in past years. The results will help you decide how hot, cold, wet, or windy it might be!

Date:

Astronomy

Nov. 20, 2013 Rise Set
Actual Time 7:43 AM CET 4:58 PM CET
Civil Twilight 7:10 AM CET 5:31 PM CET
Nautical Twilight 6:33 AM CET 6:08 PM CET
Astronomical Twilight 5:58 AM CET 6:43 PM CET
Moon 7:26 PM CET (11/20) 9:57 AM CET (11/20)
Length of Visible Light 10h 20m
Length of Day
9h 14m
Waning Gibbous, 93% of the Moon is Illuminated
Nov 20
Waning Gibbous
Nov 25
Last Quarter
Dec 3
New
Dec 9
First Quarter
Dec 17
Full

Hourly Weather History & Observations

Time (CET) Temp. Windchill Dew Point Humidity Pressure Visibility Wind Dir Wind Speed Gust Speed Precip Events Conditions
12:00 AM 38 °F - 36 °F 87% 29.77 in - WSW 4.6 mph - -  
12:20 AM 37.4 °F 33.8 °F 37.4 °F 100% 29.71 in 6.2 mi WSW 4.6 mph - N/A Rain Light Rain
12:50 AM 37.4 °F 34.9 °F 35.6 °F 93% 29.71 in 6.2 mi WSW 3.5 mph - N/A Rain Light Rain
1:00 AM 38 °F - 35 °F 86% 29.77 in 6 mi WSW 4.6 mph - - Rain Light Rain
1:50 AM 37.4 °F 33.8 °F 35.6 °F 93% 29.71 in 6.2 mi WSW 4.6 mph - N/A Rain Light Rain
2:00 AM 37 °F - 35 °F 90% 29.76 in - WSW 6.9 mph - -  
2:50 AM 35.6 °F 30.7 °F 33.8 °F 93% 29.71 in 6.2 mi SW 5.8 mph - N/A Rain Light Rain
3:00 AM 36 °F - 34 °F 88% 29.77 in - SW 6.9 mph - -  
3:20 AM 35.6 °F 29.9 °F 33.8 °F 93% 29.71 in 6.2 mi SW 6.9 mph - N/A Rain Light Rain
3:50 AM 35.6 °F 30.7 °F 33.8 °F 93% 29.71 in 5.6 mi WSW 5.8 mph - N/A Rain Light Rain
4:20 AM 33.8 °F 28.6 °F 33.8 °F 100% 29.71 in 4.3 mi SW 5.8 mph - N/A Rain , Snow Light Rain
4:50 AM 33.8 °F 29.6 °F 33.8 °F 100% 29.71 in 3.7 mi SW 4.6 mph - N/A Snow Light Snow
5:00 AM 35 °F - 33 °F 88% 29.77 in - WSW 5.8 mph - -  
5:20 AM 33.8 °F 28.6 °F 33.8 °F 100% 29.71 in 3.7 mi WSW 5.8 mph - N/A Rain , Snow Light Rain
5:50 AM 33.8 °F 30.8 °F 33.8 °F 100% 29.71 in 2.5 mi West 3.5 mph - N/A Snow Light Snow
6:00 AM 34 °F - 32 °F 89% 29.76 in - West 2.3 mph - -  
6:20 AM 32.0 °F - 32.0 °F 100% 29.71 in 1.9 mi Variable 1.2 mph - N/A Snow Light Snow
6:50 AM 33.8 °F 30.8 °F 33.8 °F 100% 29.71 in 2.5 mi WSW 3.5 mph - N/A Rain , Snow Light Snow
7:00 AM 34 °F - 32 °F 91% 29.77 in 2 mi WSW 4.6 mph - - Snow Light Snow
7:20 AM 33.8 °F 29.6 °F 33.8 °F 100% 29.71 in - WSW 4.6 mph - N/A Rain , Snow Light Rain
7:50 AM 33.8 °F 29.6 °F 33.8 °F 100% 29.71 in 5.0 mi WSW 4.6 mph - N/A Rain Light Rain
8:00 AM 35 °F - 32 °F 86% 29.77 in - West 3.5 mph - -  
8:20 AM 33.8 °F 29.6 °F 33.8 °F 100% 29.71 in 4.3 mi WSW 4.6 mph - N/A Rain , Snow Light Rain
8:50 AM 33.8 °F 30.8 °F 33.8 °F 100% 29.71 in 6.2 mi West 3.5 mph - N/A Snow Light Drizzle
9:00 AM 35 °F - 33 °F 88% 29.77 in - WNW 4.6 mph - -  
9:20 AM 33.8 °F 30.8 °F 33.8 °F 100% 29.71 in 6.2 mi West 3.5 mph - N/A   Mostly Cloudy
9:50 AM 35.6 °F 31.7 °F 33.8 °F 93% 29.71 in 6.2 mi SW 4.6 mph - N/A   Mostly Cloudy
10:20 AM 35.6 °F 30.7 °F 33.8 °F 93% 29.71 in 6.2 mi WSW 5.8 mph - N/A   Mostly Cloudy
10:50 AM 35.6 °F 30.7 °F 33.8 °F 93% 29.71 in 6.2 mi WSW 5.8 mph - N/A   Mostly Cloudy
11:00 AM 36 °F - 32 °F 80% 29.78 in - WSW 4.6 mph - -  
11:20 AM 35.6 °F 30.7 °F 33.8 °F 93% 29.71 in 6.2 mi WSW 5.8 mph - N/A   Mostly Cloudy
11:50 AM 35.6 °F 31.7 °F 33.8 °F 93% 29.71 in 6.2 mi WSW 4.6 mph - N/A   Mostly Cloudy
12:00 PM 36 °F - 33 °F 87% 29.77 in - WSW 5.8 mph - -  
12:20 PM 35.6 °F 30.7 °F 35.6 °F 100% 29.71 in 6.2 mi WSW 5.8 mph - N/A   Mostly Cloudy
12:50 PM 37.4 °F 32.1 °F 35.6 °F 93% 29.71 in 6.2 mi SW 6.9 mph - N/A Rain Light Rain
1:00 PM 36 °F - 33 °F 85% 29.76 in 10 mi WSW 6.9 mph - -   Partly Cloudy
1:20 PM 35.6 °F 29.9 °F 35.6 °F 100% 29.71 in 5.6 mi SW 6.9 mph - N/A Rain Light Rain
1:50 PM 35.6 °F 30.7 °F 33.8 °F 93% 29.71 in 6.2 mi SW 5.8 mph - N/A   Mostly Cloudy
2:00 PM 37 °F - 34 °F 85% 29.76 in - SW 8.1 mph - -  
2:20 PM 35.6 °F 29.9 °F 35.6 °F 100% 29.71 in 6.2 mi SW 6.9 mph - N/A   Mostly Cloudy
2:50 PM 35.6 °F 31.7 °F 35.6 °F 100% 29.71 in 6.2 mi WSW 4.6 mph - N/A   Mostly Cloudy
3:00 PM 37 °F - 34 °F 84% 29.76 in - SW 6.9 mph - -  
3:20 PM 37.4 °F 32.8 °F 35.6 °F 93% 29.71 in 6.2 mi WSW 5.8 mph - N/A   Mostly Cloudy
3:50 PM 35.6 °F 29.9 °F 35.6 °F 100% 29.71 in 6.2 mi WSW 6.9 mph - N/A Rain Light Rain Showers
4:20 PM 35.6 °F 30.7 °F 33.8 °F 93% 29.71 in 6.2 mi WSW 5.8 mph - N/A Rain Light Rain Showers
4:50 PM 35.6 °F 32.8 °F 33.8 °F 93% 29.71 in 6.2 mi WSW 3.5 mph - N/A Rain Light Rain Showers
5:00 PM 36 °F - 33 °F 87% 29.76 in - WSW 4.6 mph - -  
5:20 PM 35.6 °F 31.7 °F 33.8 °F 93% 29.71 in 6.2 mi West 4.6 mph - N/A   Mostly Cloudy
5:50 PM 35.6 °F 30.7 °F 33.8 °F 93% 29.71 in 6.2 mi WSW 5.8 mph - N/A Rain Light Rain Showers
6:00 PM 36 °F - 33 °F 83% 29.77 in - SW 5.8 mph - -  
6:20 PM 37.4 °F 33.8 °F 33.8 °F 87% 29.71 in 6.2 mi SW 4.6 mph - N/A   Mostly Cloudy
6:50 PM 37.4 °F 32.8 °F 33.8 °F 87% 29.71 in 6.2 mi SSW 5.8 mph - N/A   Mostly Cloudy
7:00 PM 37 °F - 33 °F 79% 29.77 in 12 mi SW 6.9 mph - - Rain Light Rain Showers
7:20 PM 37.4 °F 32.1 °F 33.8 °F 87% 29.71 in 6.2 mi SSW 6.9 mph - N/A   Mostly Cloudy
7:50 PM 37.4 °F 32.8 °F 33.8 °F 87% 29.71 in 6.2 mi South 5.8 mph - N/A   Mostly Cloudy
8:00 PM 37 °F - 31 °F 72% 29.77 in - SSW 5.8 mph - -  
8:20 PM 37.4 °F 32.1 °F 32.0 °F 81% 29.71 in 6.2 mi SSW 6.9 mph - N/A   Mostly Cloudy
8:50 PM 37.4 °F 32.1 °F 32.0 °F 81% 29.71 in 6.2 mi South 6.9 mph - N/A   Mostly Cloudy
9:00 PM 37 °F - 31 °F 69% 29.76 in - SSW 8.1 mph - -  
9:20 PM 37.4 °F 30.8 °F 32.0 °F 81% 29.71 in 6.2 mi SSW 9.2 mph - N/A   Mostly Cloudy
9:50 PM 35.6 °F 27.5 °F 32.0 °F 87% 29.68 in 6.2 mi South 11.5 mph - N/A   Mostly Cloudy
10:20 PM 35.6 °F 27.1 °F 32.0 °F 87% 29.68 in 6.2 mi SSW 12.7 mph - N/A   Mostly Cloudy
10:50 PM 33.8 °F 25.8 °F 32.0 °F 93% 29.65 in 6.2 mi SSW 10.4 mph - N/A   Scattered Clouds
11:00 PM 34 °F - 30 °F 79% 29.72 in - WSW 9.2 mph - -  
11:20 PM 33.8 °F 27.0 °F 32.0 °F 93% 29.65 in 6.2 mi WSW 8.1 mph - N/A   Mostly Cloudy
11:50 PM 33.8 °F 27.0 °F 30.2 °F 87% 29.62 in 6.2 mi West 8.1 mph - N/A   Mostly Cloudy